Вернуться в каталог

STARLINK-30104

АктивенСвязьVLEO
NORAD 56300·PAYLOAD·🇺🇸 United States

Запущен Apr 19, 2023 с Cape Canaveral Space Force Station

Loading…

Ближайшие Пролёты (ближайшие 24 часа)

TLE

СвежийSource: CelesTrak SupGP

Эпоха: Sep 15, 2026, 01:48 UTC

1 56300C 23056Q   26258.07548611 -.00043087  00000+0 -15608-2 0  2588
2 56300  43.0027 219.5409 0001234 269.4780  38.0324 15.27595630    12

Отслеживайте STARLINK-30104 в реальном времени с AllMySat

Download on the App Store